Theta_e
300 301 300 301 301 302 297 291 284 294 297 284 283 281 286 289 286 289 287 286 284 282 282 279 279 281 283 286 284 280 283 282 278 280 288 291 289 287 286 281 280 282 281 278
300 300 301 301 302 302 293 288 288 295 294 280 282 286 287 288 286 285 284 284 286 284 281 278 281 281 286 287 284 281 284 280 274 276 282 287 284 286 288 288 287 282 279 278
300 300 301 302 302 302 294 287 280 286 288 287 284 282 283 284 288 285 286 284 284 281 279 281 279 280 285 287 286 290 289 282 275 270 275 284 281 286 288 287 282 283 281 279
300 301 301 302 302 302 292 285 281 285 279 282 283 283 284 282 282 285 285 282 282 280 277 278 278 281 283 285 289 286 286 278 281 282 284 286 282 282 283 283 285 283 282 279
300 300 301 301 302 301 289 284 283 285 284 285 282 284 282 282 282 282 281 281 282 281 279 280 278 280 281 281 284 282 283 278 281 280 286 287 281 282 282 282 283 286 284 280
300 299 300 301 301 299 289 289 289 286 284 282 282 282 283 283 284 285 286 283 282 281 283 284 284 285 285 285 282 281 281 280 280 278 284 285 278 280 283 282 283 284 278 283
299 299 299 301 301 298 292 289 287 284 280 282 283 285 285 284 284 283 286 286 283 286 289 288 286 285 285 285 284 285 281 281 281 278 282 273 282 285 286 283 283 284 284 284
298 299 299 301 301 300 292 291 288 285 280 284 285 285 285 284 285 284 285 286 288 288 286 282 281 281 282 284 287 285 284 282 279 276 278 280 282 282 281 280 281 285 283 284
298 299 299 300 302 300 293 291 291 288 284 282 288 284 284 281 281 282 284 288 289 286 282 278 277 276 279 279 281 286 285 283 281 278 276 271 278 282 286 287 277 284 285 284
298 299 300 301 301 300 294 291 291 288 283 286 287 283 283 285 282 280 282 284 283 284 276 277 275 277 281 277 277 278 279 279 277 276 277 279 282 283 286 276 275 284 284 285
298 299 299 301 301 300 295 293 292 287 282 285 289 291 286 285 283 279 282 279 280 279 275 277 276 276 279 279 281 282 279 278 276 277 273 269 283 283 278 282 286 284 283 284
299 299 299 301 300 299 297 290 293 292 286 285 289 291 291 290 288 285 283 281 282 282 276 275 278 277 277 279 274 283 274 281 279 280 278 284 284 283 285 286 285 284 284 283
299 299 299 300 300 300 297 290 290 288 283 283 286 287 291 292 291 291 282 283 286 284 284 280 279 278 276 274 276 279 284 284 281 280 282 283 282 284 284 285 283 283 283 283
299 299 299 300 299 299 296 290 289 288 284 280 284 291 288 294 292 290 289 289 290 288 284 281 277 278 282 278 280 279 283 283 280 280 282 283 282 283 282 283 284 283 282 281
299 299 299 299 299 298 294 290 290 290 284 279 282 286 290 292 291 290 290 288 287 282 278 275 276 281 279 281 281 274 283 280 275 277 281 282 281 284 285 281 282 282 281 280
299 298 298 298 297 294 288 282 290 293 291 281 278 285 286 290 291 293 290 288 287 285 281 276 277 283 280 272 273 281 284 285 286 282 284 282 282 283 282 282 282 281 279 280
299 298 298 297 296 291 284 283 292 296 291 280 277 280 287 291 291 286 290 292 288 286 284 281 281 281 283 278 276 281 284 285 285 286 284 280 281 277 282 282 280 280 278 278
298 298 297 296 295 292 288 295 298 295 288 285 274 278 284 292 286 284 287 287 288 287 285 283 280 282 280 272 280 283 284 284 283 281 280 277 277 276 277 279 278 276 275 275
298 297 294 289 286 282 287 298 297 294 287 278 276 276 276 289 285 285 282 283 280 282 278 280 280 275 276 276 283 282 281 282 281 279 278 276 275 274 274 274 274 273 273 273
295 288 282 276 283 294 297 291 286 284 287 284 278 281 281 287 282 282 278 284 280 276 279 281 276 279 276 278 278 278 278 280 283 279 277 276 274 274 273 273 273 273 272 272
285 278 278 285 293 287 282 276 277 281 279 281 281 281 281 284 278 278 278 281 282 276 278 277 273 273 275 277 276 276 276 276 275 276 277 277 276 274 273 272 272 272 271 270
285 286 289 287 283 279 274 274 279 278 277 280 280 279 281 282 281 278 283 280 281 276 282 278 271 270 275 275 274 273 274 274 273 274 273 274 274 273 272 271 270 269 269 266
286 282 277 276 277 269 269 269 275 275 278 279 281 277 280 284 282 281 281 278 277 279 277 271 271 272 275 274 273 272 273 273 272 271 271 270 267 267 267 264 262 261 260 257
274 272 271 270 273 274 272 275 277 278 276 275 275 280 278 277 276 272 269 275 280 275 273 270 268 272 273 273 273 272 269 268 267 265 265 264 263 259 256 256 255 257 258 255
274 274 264 271 272 276 279 276 279 279 284 277 277 278 280 277 276 280 276 272 268 270 269 269 267 273 272 271 271 268 267 264 263 261 262 260 259 262 258 256 256 258 254 255
276 278 273 271 273 270 270 279 282 284 282 282 281 277 272 274 274 278 275 275 268 269 269 267 272 272 271 269 269 267 265 264 263 263 263 262 261 262 260 257 258 255 256 256
277 274 278 278 273 272 273 280 284 286 283 282 282 273 273 279 277 275 279 270 270 267 266 269 272 271 269 267 266 265 265 264 264 263 263 261 261 262 265 263 259 260 259 257
Wind_Speed
21 19 18 17 16 14 5 4 5 1 1 3 1 3 4 5 4 3 3 4 3 3 2 0 2 3 4 3 2 5 2 3 7 13 15 3 1 4 4 4 4 4 4 4
17 15 15 15 15 10 4 4 4 1 2 4 1 2 3 3 4 3 3 3 3 1 2 1 3 3 3 4 5 1 3 2 6 11 4 4 7 6 7 8 4 3 5 4
15 14 13 10 8 9 3 4 5 2 2 1 3 5 4 5 4 4 5 5 4 3 1 3 3 3 3 6 2 5 1 3 7 6 9 5 14 11 12 5 3 6 4 5
14 12 10 8 6 8 4 3 2 4 5 3 4 4 3 5 4 3 4 3 4 4 3 3 3 2 5 3 4 3 2 5 3 9 13 5 13 18 18 10 13 5 7 8
13 11 8 6 5 7 3 4 5 2 3 5 6 2 2 5 4 4 3 5 4 5 5 5 3 2 1 4 3 2 1 4 3 6 6 5 9 14 16 15 15 5 7 9
13 10 7 5 5 3 2 1 2 4 3 3 5 4 5 5 7 5 4 4 3 4 5 4 7 9 6 6 1 2 1 2 3 5 5 7 3 9 8 8 16 7 9 5
12 10 6 6 3 3 3 1 3 5 1 3 4 5 4 7 3 6 2 3 2 2 5 5 2 4 6 6 6 7 2 1 2 5 4 2 3 10 8 7 12 13 10 5
11 9 6 5 3 3 4 2 3 3 4 3 6 7 7 6 5 4 3 1 1 4 4 4 3 3 3 3 3 1 8 2 3 2 3 2 3 7 7 5 9 11 12 13
10 9 6 4 5 7 5 3 0 3 6 0 3 5 3 4 3 2 0 2 3 4 3 3 2 1 2 1 5 5 4 2 3 3 3 1 2 13 12 5 2 13 12 11
12 10 7 7 7 6 4 3 3 4 5 0 1 4 5 5 4 3 1 4 6 3 2 2 1 1 1 1 2 4 3 2 3 4 3 3 9 15 10 2 5 10 9 8
12 9 7 8 9 6 4 1 3 4 4 1 2 2 5 3 3 4 2 4 4 3 4 1 0 1 1 1 1 1 2 3 2 3 2 3 13 4 5 5 3 7 8 11
12 10 8 9 9 6 4 4 3 2 6 3 1 2 1 4 5 6 2 4 2 2 4 2 1 1 2 1 1 3 1 2 2 2 1 4 5 6 5 7 6 6 9 10
13 11 10 10 8 7 6 3 2 4 4 3 3 3 4 4 3 2 5 1 3 2 3 3 1 1 3 1 1 0 1 3 1 2 3 4 5 5 7 6 7 8 7 8
14 13 12 10 10 9 9 4 2 4 4 4 0 2 3 3 5 3 3 4 4 5 3 2 2 1 1 1 1 2 1 2 1 1 3 5 5 5 4 4 5 5 7 10
15 14 13 12 12 14 8 3 3 2 4 4 1 2 2 2 5 6 5 4 4 3 3 2 1 1 1 0 2 1 2 2 2 2 2 1 3 5 5 3 5 6 7 8
15 14 13 11 11 6 4 4 4 3 3 4 3 3 3 3 6 7 6 3 2 2 3 2 2 3 3 2 2 3 4 3 2 3 3 5 4 4 5 4 8 8 8 9
15 14 14 11 9 4 4 3 1 2 2 4 3 3 3 4 4 3 3 1 1 2 1 0 1 2 2 1 2 3 6 6 5 5 7 4 6 3 6 11 10 9 8 8
16 16 15 12 12 8 5 3 3 3 4 3 3 1 1 0 2 3 2 2 0 2 1 1 1 1 1 1 2 7 7 8 6 6 6 6 6 6 7 7 6 8 7 7
19 18 11 5 5 3 2 6 8 3 3 3 3 4 4 2 2 2 3 2 1 2 1 2 3 1 5 3 7 7 4 3 9 8 7 7 8 6 6 7 7 7 7 7
17 6 4 3 1 2 8 3 3 3 2 1 2 1 2 3 2 1 2 2 0 0 4 2 2 3 3 3 6 6 5 4 7 9 6 6 4 6 7 8 7 7 6 7
4 3 2 2 2 3 3 2 2 1 1 3 2 3 2 1 4 3 1 2 2 1 2 3 2 4 4 7 7 6 6 7 7 7 6 6 6 6 6 7 7 7 7 7
5 5 4 3 3 3 5 1 1 1 2 2 4 3 3 1 3 4 2 2 1 2 3 1 3 3 7 9 8 7 6 7 8 7 8 7 8 7 8 7 7 6 6 5
3 5 4 4 1 5 4 5 2 2 3 4 3 2 3 2 3 4 2 3 3 2 0 5 5 4 7 8 8 8 7 8 9 9 8 8 7 7 6 6 3 3 5 3
5 4 4 4 2 3 4 2 3 2 2 2 2 3 3 2 4 3 5 3 1 2 2 7 3 7 9 8 7 8 7 6 7 7 6 7 7 5 4 4 2 4 5 2
4 4 3 3 3 3 2 2 0 3 3 3 2 3 3 2 4 1 3 2 4 6 6 5 3 10 10 9 7 8 8 6 6 4 5 6 5 6 4 2 2 5 4 4
3 2 2 1 2 4 3 2 3 1 3 2 1 3 4 1 4 4 5 3 6 6 4 3 7 10 9 8 7 7 7 7 6 5 5 5 6 5 5 3 3 3 4 5
3 1 2 0 1 3 3 2 2 1 2 2 2 4 6 3 2 3 5 7 5 4 2 2 6 11 10 8 8 8 8 8 6 6 4 4 4 5 4 5 2 3 3 3
Wind_Direction
136 143 146 146 153 156 129 105 93 12 76 106 175 142 176 120 143 97 86 103 97 128 109 5 257 237 220 167 154 343 299 287 289 285 291 228 286 292 269 273 319 259 246 69
138 142 145 152 161 161 139 93 106 337 156 146 155 206 159 117 117 115 115 99 106 145 129 337 218 261 273 358 28 325 339 303 312 336 8 59 304 300 277 261 249 284 310 16
143 150 144 148 145 170 95 109 115 20 44 106 169 137 128 106 82 76 77 105 81 81 14 251 251 281 308 333 282 257 298 252 179 217 242 327 337 0 343 292 272 323 54 65
142 133 125 135 135 152 91 34 169 175 185 229 165 102 114 117 113 88 91 63 111 146 227 240 206 257 312 315 63 55 81 267 226 255 281 196 40 11 11 17 334 26 37 68
136 131 129 122 113 127 81 130 120 45 98 127 109 68 127 130 115 117 114 117 181 184 208 209 239 199 213 264 344 8 356 273 310 278 194 230 60 17 30 18 1 51 79 68
148 138 119 114 110 137 119 348 59 99 331 102 101 179 146 153 116 46 96 150 164 236 244 207 218 206 202 219 314 306 267 275 316 271 349 306 51 5 23 39 24 0 28 40
149 147 129 87 95 147 132 124 103 90 52 95 120 131 103 126 110 126 104 88 129 280 326 297 234 225 220 204 228 204 256 232 242 280 320 29 100 39 357 59 43 24 26 21
141 127 118 81 90 128 93 86 87 119 101 99 89 105 110 84 57 72 117 35 21 320 12 6 354 357 91 98 134 167 200 341 284 313 325 148 71 28 340 349 47 26 19 15
135 133 123 99 103 86 77 74 63 93 120 43 95 97 99 123 97 54 61 339 342 42 68 55 79 113 94 344 352 31 97 265 263 343 296 308 22 328 328 279 96 5 10 15
143 146 140 102 85 76 97 72 37 82 102 260 124 118 133 108 102 122 313 352 359 50 55 74 98 119 225 95 34 5 352 10 17 334 310 105 4 320 315 12 330 353 356 10
141 134 113 100 91 76 78 107 31 110 98 57 24 92 117 88 101 131 221 53 342 34 64 97 218 105 45 28 110 139 27 334 345 316 326 323 5 29 51 332 34 357 353 352
137 135 115 100 91 81 83 66 347 1 82 131 1 319 341 68 163 129 43 149 144 161 90 32 93 31 21 108 241 7 125 351 325 7 41 53 49 47 42 8 6 10 1 354
145 137 119 104 86 75 99 107 327 51 79 22 64 74 21 104 179 132 113 296 168 103 160 145 141 138 119 119 263 210 77 355 187 159 126 100 58 47 25 31 19 46 26 14
139 131 119 114 96 81 73 75 327 76 100 107 216 357 36 95 115 109 111 124 82 92 69 96 122 157 158 216 229 144 40 31 324 84 118 128 104 80 19 11 55 64 58 38
136 131 119 105 96 91 85 86 36 60 113 148 167 336 15 290 144 129 108 70 66 67 39 65 235 241 71 238 54 331 115 129 116 252 46 341 82 54 33 12 50 46 51 55
134 131 127 113 100 71 56 43 355 354 81 87 111 304 347 60 110 104 103 116 96 97 121 232 282 269 106 94 231 169 106 108 115 133 107 89 81 59 9 14 90 70 63 53
132 124 121 108 84 66 78 130 175 298 62 71 57 25 347 110 106 53 79 101 121 110 129 116 273 307 124 140 236 121 126 125 119 116 118 95 51 37 27 81 75 72 67 52
125 116 107 93 89 80 44 16 51 62 70 72 101 282 96 28 69 84 348 100 94 37 62 49 206 335 54 280 161 143 129 117 90 65 64 86 101 66 55 63 73 66 51 38
122 116 100 63 37 61 117 109 78 54 96 124 100 138 187 61 86 82 31 48 163 347 176 247 109 305 226 192 157 129 73 98 127 111 99 98 96 90 71 67 57 64 52 39
114 60 53 37 307 203 151 38 43 20 41 25 117 119 140 100 69 103 90 71 195 166 241 116 154 243 108 86 92 96 81 59 134 140 145 129 112 100 81 72 69 66 54 48
53 80 74 233 208 64 36 66 95 167 186 156 215 177 138 343 125 164 212 167 165 262 268 159 261 266 162 138 113 93 84 79 71 86 81 79 113 119 106 83 69 64 58 44
171 125 109 56 53 41 84 205 225 217 218 152 173 204 193 193 101 100 179 159 146 266 184 204 262 238 141 139 130 113 102 99 90 84 88 83 88 89 95 88 79 68 62 40
54 58 65 75 5 60 154 195 204 218 170 173 166 174 159 112 63 88 129 175 220 111 257 235 231 163 148 137 133 120 111 109 108 102 97 95 81 66 90 101 66 86 74 25
78 102 105 142 162 221 206 174 178 231 102 165 147 121 135 173 69 136 93 240 217 256 243 241 218 168 151 142 136 129 123 119 118 114 109 107 105 98 69 85 131 103 71 8
83 75 150 183 236 269 268 188 196 257 119 115 68 60 92 23 95 206 122 105 251 201 229 234 191 150 146 145 139 134 140 137 133 127 123 130 129 116 102 50 84 88 92 88
79 91 113 291 59 310 336 261 237 241 116 112 109 121 72 182 146 147 198 201 223 246 218 204 142 148 146 143 141 144 142 146 141 140 139 137 135 138 145 114 98 107 116 109
91 162 185 160 202 206 245 315 24 5 114 211 156 119 195 152 175 202 183 208 216 209 216 162 159 159 152 137 134 142 147 147 148 145 144 147 145 133 120 116 207 160 142 132